Location: Ahausen
(50.4985°N, 8.2722°E)
Time: 12:04:45
(UTC+00:00)

JY1SAT - Pass Details

Date: 03 July 2022
Orbit: 563 x 587 km, 97.6° (Epoch: 11 August)

Event Time Altitude Azimuth Distance (km) Brightness Sun altitude
Exits shadow 21:57:39 - 215° (SW) 2,315 ? -13.7°
Reaches altitude 10° 21:58:59 10° 226° (SW) 1,914 ? -13.8°
Maximum altitude 22:01:49 18° 270° (W) 1,479 ? -14.0°
Drops below altitude 10° 22:04:41 10° 313° (NW) 1,922 ? -14.1°
Sets 22:07:28 0° 333° (NNW) 2,826 ? -14.3°
